{"data":{"norad_id":69041,"epoch":"2026-09-19T01:00:04.324608Z","epoch_age_seconds":163282,"freshness":"FRESH","line1":"1 69041U 26101S   26262.04171672  .00011153  00000+0  34722-3 0  9997","line2":"2 69041  97.2825 115.5214 0003673  82.0304 278.1356 15.33445053 20951","mean_motion":15.33445053,"eccentricity":0.0003673,"inclination_deg":97.2825,"raan_deg":115.5214,"arg_perigee_deg":82.0304,"mean_anomaly_deg":278.1356,"bstar":0.00034722,"rev_number":2095,"period_min":93.906201411183,"perigee_km":463.02933311726,"apogee_km":468.05670045759,"semimajor_km":6843.6800167874,"source":"CELESTRAK","updated_at":"2026-09-20T09:00:44.061171Z"}}